sat.trackr.live / text

‹ back to catalog

STARLINK-37181

NORAD 68341 · 2026-059W

PAYLOAD ACTIVE UNKNOWN

§ Identity

Operator
Country
US
Launch date
2026-03-22
Launch site
AFETR
Launch vehicle
Mass (kg)
RCS (m²)

Purposes: comms

External: N2YO · Heavens-Above · Gunter

§ Orbital elements

Epoch: 2026-09-20T00:21:00.354816Z

Period
93.85 min
Inclination
53.1574°
Eccentricity
0.0001378
Mean motion
15.34404493 rev/d
Perigee alt
461.7 km
Apogee alt
463.6 km
Semi-major
6,840.8 km
B*
4.3260e-4
RAAN
158.0998°
Arg perigee
32.9771°
Mean anomaly
327.1317°
Rev number
2,803

§ Raw data

STARLINK-371811 68341U 26059W   26263.01458744  .00014270  00000+0  43260-3 0  99972 68341  53.1574 158.0998 0001378  32.9771 327.1317 15.34404493 28031

JSON: /api/v1/satellites/68341 · /tle

For live sub-satellite position, see the globe view (requires WebGL).

§ Visibility from observer

Set your observer location to see the next 7 days of passes ≥ 10°. The values pass through the URL so the page stays shareable.

No JS? Fill the form by hand. The geolocation button needs JavaScript.